• In Uzbekistan
  • List of Countries
  • For 7 days
  • Water Temperature
  • Satellite Maps
  • Weather Map
  • Weather Widgets
  • user-avatar
    Login

    Hourly Weather La Massana

    Today, 24 September, Sunday

    Time Temperature Precipitation Wind Pressure Humidity
    00:00 +7°C° 0 mm 1 mps 613 mmHg 66%
    01:00 +7°C° 0 mm 1 mps 613 mmHg 64%
    02:00 +7°C° 0 mm 1 mps 613 mmHg 61%
    03:00 +7°C° 0 mm 1 mps 613 mmHg 59%
    04:00 +6°C° 0 mm 2 mps 613 mmHg 57%
    05:00 +6°C° 0 mm 2 mps 613 mmHg 55%
    06:00 +6°C° 0 mm 2 mps 613 mmHg 54%
    07:00 +10°C° 0 mm 1 mps 614 mmHg 47%
    08:00 +13°C° 0 mm 1 mps 616 mmHg 41%
    09:00 +15°C° 0 mm 0 mps 617 mmHg 35%
    10:00 +18°C° 0 mm 1 mps 618 mmHg 33%
    11:00 +19°C° 0 mm 1 mps 618 mmHg 32%
    12:00 +20°C° 0 mm 1 mps 618 mmHg 30%
    13:00 +20°C° 0 mm 1 mps 618 mmHg 31%
    14:00 +20°C° 0 mm 1 mps 617 mmHg 32%
    15:00 +19°C° 0 mm 2 mps 617 mmHg 33%
    16:00 +16°C° 0 mm 1 mps 616 mmHg 42%
    17:00 +14°C° 0 mm 1 mps 615 mmHg 51%
    18:00 +11°C° 0 mm 1 mps 614 mmHg 60%
    19:00 +11°C° 0 mm 1 mps 614 mmHg 61%
    20:00 +10°C° 0 mm 1 mps 614 mmHg 62%
    21:00 +10°C° 0 mm 1 mps 614 mmHg 64%
    22:00 +9°C° 0 mm 1 mps 614 mmHg 63%
    23:00 +9°C° 0 mm 1 mps 614 mmHg 63%

    Tomorrow, 25 September, Monday

    Time Temperature Precipitation Wind Pressure Humidity
    00:00 +9°C° 0 mm 1 mps 613 mmHg 63%
    01:00 +9°C° 0 mm 1 mps 613 mmHg 64%
    02:00 +9°C° 0 mm 1 mps 613 mmHg 64%
    03:00 +8°C° 0 mm 1 mps 613 mmHg 65%
    04:00 +8°C° 0 mm 1 mps 613 mmHg 66%
    05:00 +8°C° 0 mm 1 mps 613 mmHg 66%
    06:00 +8°C° 0 mm 1 mps 613 mmHg 67%
    07:00 +10°C° 0 mm 1 mps 614 mmHg 63%
    08:00 +12°C° 0 mm 1 mps 615 mmHg 58%
    09:00 +14°C° 0 mm 1 mps 616 mmHg 54%
    10:00 +15°C° 0.1 mm 2 mps 616 mmHg 53%
    11:00 +15°C° 0.1 mm 2 mps 616 mmHg 51%
    12:00 +16°C° 0.1 mm 2 mps 617 mmHg 50%
    13:00 +16°C° 0.3 mm 2 mps 616 mmHg 54%
    14:00 +15°C° 0.3 mm 2 mps 616 mmHg 59%
    15:00 +14°C° 0.3 mm 2 mps 615 mmHg 63%
    16:00 +13°C° 0.4 mm 2 mps 615 mmHg 70%
    17:00 +10°C° 0.4 mm 2 mps 614 mmHg 78%
    18:00 +9°C° 0.4 mm 2 mps 614 mmHg 85%
    19:00 +9°C° 0.2 mm 2 mps 614 mmHg 87%
    20:00 +8°C° 0.2 mm 2 mps 614 mmHg 90%
    21:00 +8°C° 0.2 mm 2 mps 615 mmHg 92%
    22:00 +8°C° 0.1 mm 1 mps 614 mmHg 93%
    23:00 +8°C° 0.1 mm 1 mps 614 mmHg 93%

    Day after tomorrow, 26 September, Tuesday

    Time Temperature Precipitation Wind Pressure Humidity
    00:00 +8°C° 0.1 mm 1 mps 614 mmHg 94%
    01:00 +8°C° 0.1 mm 1 mps 614 mmHg 95%
    02:00 +7°C° 0.1 mm 1 mps 614 mmHg 95%
    03:00 +6°C° 0.1 mm 0 mps 613 mmHg 96%
    04:00 +6°C° 0 mm 0 mps 613 mmHg 96%
    05:00 +6°C° 0 mm 0 mps 613 mmHg 96%
    06:00 +7°C° 0 mm 1 mps 613 mmHg 96%
    07:00 +8°C° 0 mm 1 mps 614 mmHg 90%
    08:00 +8°C° 0 mm 0 mps 615 mmHg 84%
    09:00 +9°C° 0 mm 0 mps 616 mmHg 78%
    10:00 +11°C° 0.1 mm 1 mps 616 mmHg 74%
    11:00 +12°C° 0.1 mm 1 mps 616 mmHg 69%
    12:00 +13°C° 0.1 mm 1 mps 616 mmHg 65%
    13:00 +13°C° 0.1 mm 1 mps 616 mmHg 66%
    14:00 +12°C° 0.1 mm 1 mps 616 mmHg 67%
    15:00 +12°C° 0.1 mm 1 mps 615 mmHg 68%
    16:00 +11°C° 0.1 mm 1 mps 615 mmHg 73%
    17:00 +10°C° 0.1 mm 1 mps 615 mmHg 77%
    18:00 +8°C° 0.1 mm 0 mps 614 mmHg 81%
    19:00 +7°C° 0 mm 0 mps 614 mmHg 83%
    20:00 +8°C° 0 mm 1 mps 614 mmHg 85%
    21:00 +7°C° 0 mm 1 mps 614 mmHg 87%
    22:00 +7°C° 0 mm 1 mps 614 mmHg 88%
    23:00 +7°C° 0 mm 1 mps 614 mmHg 89%

    27 September, Wednesday

    Time Temperature Precipitation Wind Pressure Humidity
    00:00 +6°C° 0 mm 1 mps 614 mmHg 90%
    01:00 +6°C° 0 mm 1 mps 614 mmHg 89%
    02:00 +6°C° 0 mm 1 mps 614 mmHg 89%
    03:00 +6°C° 0 mm 1 mps 614 mmHg 89%
    04:00 +6°C° 0 mm 1 mps 614 mmHg 88%
    05:00 +6°C° 0 mm 1 mps 614 mmHg 87%
    06:00 +6°C° 0 mm 1 mps 614 mmHg 87%
    07:00 +8°C° 0 mm 1 mps 615 mmHg 77%
    08:00 +11°C° 0 mm 1 mps 616 mmHg 68%
    09:00 +13°C° 0 mm 1 mps 618 mmHg 59%
    10:00 +15°C° 0 mm 1 mps 618 mmHg 53%
    11:00 +16°C° 0 mm 1 mps 619 mmHg 47%
    12:00 +18°C° 0 mm 1 mps 619 mmHg 41%
    13:00 +18°C° 0 mm 1 mps 619 mmHg 42%
    14:00 +18°C° 0 mm 1 mps 619 mmHg 42%
    15:00 +17°C° 0 mm 2 mps 618 mmHg 43%
    16:00 +14°C° 0 mm 1 mps 618 mmHg 52%
    17:00 +12°C° 0 mm 1 mps 617 mmHg 61%
    18:00 +10°C° 0 mm 1 mps 616 mmHg 70%
    19:00 +9°C° 0 mm 1 mps 616 mmHg 70%
    20:00 +9°C° 0 mm 1 mps 617 mmHg 70%
    21:00 +8°C° 0 mm 1 mps 617 mmHg 71%
    22:00 +8°C° 0 mm 1 mps 617 mmHg 68%
    23:00 +8°C° 0 mm 1 mps 617 mmHg 65%

    28 September, Thursday

    Time Temperature Precipitation Wind Pressure Humidity
    00:00 +8°C° 0 mm 1 mps 617 mmHg 62%
    01:00 +8°C° 0 mm 1 mps 617 mmHg 59%
    02:00 +8°C° 0 mm 1 mps 617 mmHg 57%
    03:00 +7°C° 0 mm 1 mps 616 mmHg 54%
    04:00 +8°C° 0 mm 1 mps 617 mmHg 53%
    05:00 +8°C° 0 mm 1 mps 617 mmHg 52%
    06:00 +8°C° 0 mm 1 mps 617 mmHg 50%
    07:00 +10°C° 0 mm 1 mps 618 mmHg 48%
    08:00 +13°C° 0 mm 1 mps 619 mmHg 46%
    09:00 +14°C° 0 mm 0 mps 621 mmHg 44%
    10:00 +16°C° 0 mm 1 mps 621 mmHg 43%
    11:00 +18°C° 0 mm 1 mps 621 mmHg 42%
    12:00 +19°C° 0 mm 1 mps 621 mmHg 41%
    13:00 +19°C° 0 mm 1 mps 621 mmHg 43%
    14:00 +19°C° 0 mm 1 mps 621 mmHg 44%
    15:00 +19°C° 0 mm 1 mps 620 mmHg 46%
    16:00 +16°C° 0 mm 1 mps 619 mmHg 55%
    17:00 +13°C° 0 mm 1 mps 618 mmHg 64%
    18:00 +10°C° 0 mm 0 mps 617 mmHg 73%
    19:00 +10°C° 0 mm 0 mps 617 mmHg 75%
    20:00 +9°C° 0 mm 0 mps 617 mmHg 77%
    21:00 +10°C° 0 mm 1 mps 617 mmHg 80%
    22:00 +9°C° 0 mm 1 mps 617 mmHg 80%
    23:00 +9°C° 0 mm 1 mps 617 mmHg 80%

    29 September, Friday

    Time Temperature Precipitation Wind Pressure Humidity
    00:00 +9°C° 0 mm 1 mps 617 mmHg 80%
    01:00 +9°C° 0 mm 1 mps 617 mmHg 80%
    02:00 +9°C° 0 mm 1 mps 616 mmHg 79%
    03:00 +9°C° 0 mm 1 mps 616 mmHg 79%
    04:00 +9°C° 0 mm 1 mps 616 mmHg 79%
    05:00 +9°C° 0 mm 1 mps 616 mmHg 78%
    06:00 +8°C° 0 mm 1 mps 616 mmHg 78%
    07:00 +11°C° 0 mm 1 mps 617 mmHg 69%
    08:00 +14°C° 0 mm 1 mps 618 mmHg 60%
    09:00 +16°C° 0 mm 1 mps 620 mmHg 51%
    10:00 +18°C° 0 mm 1 mps 620 mmHg 49%
    11:00 +19°C° 0 mm 1 mps 620 mmHg 47%
    12:00 +20°C° 0 mm 1 mps 620 mmHg 46%
    13:00 +19°C° 0.3 mm 1 mps 619 mmHg 48%
    14:00 +19°C° 0.3 mm 1 mps 619 mmHg 50%
    15:00 +19°C° 0.3 mm 1 mps 618 mmHg 52%
    16:00 +16°C° 0.3 mm 1 mps 618 mmHg 60%
    17:00 +14°C° 0.3 mm 1 mps 617 mmHg 67%
    18:00 +12°C° 0.3 mm 1 mps 616 mmHg 74%
    19:00 +12°C° 0.1 mm 1 mps 617 mmHg 76%
    20:00 +11°C° 0.1 mm 1 mps 617 mmHg 78%
    21:00 +11°C° 0.1 mm 1 mps 617 mmHg 79%
    22:00 +10°C° 0 mm 1 mps 617 mmHg 79%
    23:00 +10°C° 0 mm 1 mps 616 mmHg 79%
    Show more